sat.trackr.live / text

‹ back to catalog

STARLINK-36831

NORAD 67864 · 2026-034Q

PAYLOAD ACTIVE UNKNOWN

§ Identity

Operator
Country
US
Launch date
2026-02-20
Launch site
AFETR
Launch vehicle
Mass (kg)
RCS (m²)

Purposes: comms

External: N2YO · Heavens-Above · Gunter

§ Orbital elements

Epoch: 2026-09-19T16:15:20.030688Z

Period
93.85 min
Inclination
53.1598°
Eccentricity
0.0001137
Mean motion
15.34412901 rev/d
Perigee alt
461.9 km
Apogee alt
463.4 km
Semi-major
6,840.8 km
B*
7.3813e-4
RAAN
21.2344°
Arg perigee
85.7691°
Mean anomaly
274.3441°
Rev number
3,376

§ Raw data

STARLINK-368311 67864U 26034Q   26262.67731517  .00024655  00000+0  73813-3 0  99972 67864  53.1598  21.2344 0001137  85.7691 274.3441 15.34412901 33762

JSON: /api/v1/satellites/67864 · /tle

For live sub-satellite position, see the globe view (requires WebGL).

§ Visibility from observer

Set your observer location to see the next 7 days of passes ≥ 10°. The values pass through the URL so the page stays shareable.

No JS? Fill the form by hand. The geolocation button needs JavaScript.